Regional Weather Roundup
Issued by NWS Burlington, VT

Home | Current Version | Previous Version | Text Only | Print | Product List | Glossary On
Versions: 1 2 3 4 5 6 7 8 9 10 11 12 13 14 15 16 17 18 19 20 21 22 23 24 25 26 27 28 29 30 31 32 33 34 35 36 37 38 39 40 41 42 43 44 45 46 47 48 49 50
000
ASUS41 KBTV 090530
RWRBTV
VERMONT REGIONAL WEATHER ROUNDUP
NATIONAL WEATHER SERVICE BURLINGTON VT
1200 AM EST TUE FEB 09 2016

NOTE: "FAIR" INDICATES FEW OR NO CLOUDS BELOW 12,000 FEET WITH NO
SIGNIFICANT WEATHER AND/OR OBSTRUCTIONS TO VISIBILITY.

* THESE REPORTS ARE NOT UNDER NWS QUALITY CONTROL AND/OR DO NOT
  REPORT WEATHER SUCH AS PRECIPITATION AND FOG.

VTZ001>019-090600-
_____VERMONT_____


CITY           SKY/WX    TMP DP  RH WIND       PRES   REMARKS
BURLINGTON     LGT SNOW  22  17  81 CALM      29.78F
MONTPELIER     LGT SNOW  17  14  88 N5        29.76F FOG     WCI  10
MORRISVILLE    LGT SNOW  20  14  77 N5        29.78F WCI  13
ST. JOHNSBURY*   N/A     20  15  81 MISG      29.75F
LYNDONVILLE*   LGT SNOW  17  13  85 N6        29.74F WCI   8
RUTLAND*       CLOUDY    21  16  79 SE7       29.73F WCI  13
SPRINGFIELD    LGT SNOW  20  17  88 CALM      29.77F FOG
HIGHGATE*      LGT SNOW  19  15  83 NE6       29.80S WCI  11
NEWPORT*       LGT SNOW  16  13  87 N7        29.76F WCI   6
BENNINGTON     LGT SNOW  22  20  92 CALM      29.72F FOG
SUTTON*          N/A     14 N/A N/A MISG        N/A
MT. MANSFIELD*   N/A      7 N/A N/A SW14        N/A  WCI -10

_____LAKE CHAMPLAIN_____


CITY           SKY/WX    TMP DP  RH WIND       PRES   REMARKS

$$

NYZ007-026>031-035-052-083-090600-
_____NORTHERN NEW YORK_____


CITY           SKY/WX    TMP DP  RH WIND       PRES   REMARKS
PLATTSBURGH    LGT SNOW  21  17  84 N10       29.79F FOG     WCI  10
SARANAC LAKE   LGT SNOW  16  12  84 NE7       29.65F FOG     WCI   6
MASSENA        LGT SNOW  19  13  77 E14       29.79F WCI   6
OGDENSBURG*    CLEAR     21  16  79 E10       29.73S WCI  10
WATERTOWN      CLOUDY    24  12  60 NE10      29.68F WCI  14
ALBANY         LGT SNOW  25  21  85 CALM      29.77F FOG
GLENS FALLS    LGT SNOW  23  19  85 E5        29.76F FOG     WCI  17

$$
NHZ002-005-011-090600-
_____NEW HAMPSHIRE_____


CITY           SKY/WX    TMP DP  RH WIND       PRES   REMARKS
LEBANON        LGT SNOW  21  16  81 N3        29.77S
MT WASHINGTON  SNOW       9   9 100 E8          N/A  VSB 1/4 WCI  -4
PLYMOUTH       LGT SNOW  20  19  95 CALM      29.76F
WHITEFIELD     LGT SNOW  18  10  71 E9        29.72F WCI   7

$$

_____REGIONAL QUEBEC LOCATIONS_____


CITY           SKY/WX    TMP DP  RH WIND       PRES   REMARKS
MONTREAL       FLURRIES  19   5  53 NE14      29.83F WCI   6
QUEBEC CITY    FLURRIES  18  12  79 NE15G22   29.91F WCI   3
SHERBROOKE     LGT SNOW  14  12  92 NE7       29.79F WCI   4

_____REGIONAL ONTARIO LOCATIONS_____


CITY           SKY/WX    TMP DP  RH WIND       PRES   REMARKS
OTTAWA         LGT SNOW  18  12  79 E16G25    29.78S WCI   3

______KEY______
VSB  - VISIBILITY IN MILES
WCI  - WIND CHILL INDEX
HX   - HEAT INDEX
$$
NNNN



USA.gov is the U.S. government's official web portal to all federal, state and local government web resources and services.